CAL762 WIII-RCTP

Flight info

Callsign CAL762
Flight time N/A
Altitude 39000
Route AMBOY P648 OKADA/N0485F410 P648 VJN M646 MIA/N0488F400 B462 LAO/N0485F410 M646 HCN W4 TNN TNN1A
Aircraft A359/H-SDE2E3GHIJ3J4J5LM1ORWXY/LB1D1

Departure

Time 2026-04-28 10:07
Airport Soekarno-Hatta International Airport (WIII)

Arrival

Time N/A
Airport Taiwan Taoyuan International Airport (RCTP)
Time Latitude Longitude Altitude Speed Heading
2026-04-28 09:41 -6.11775 106.65944 36 ft 0 kts 249°
2026-04-28 09:55 -6.11770 106.65956 36 ft 2 kts 249°
2026-04-28 09:55 -6.11766 106.65971 35 ft 2 kts 271°
2026-04-28 09:55 -6.11769 106.65985 35 ft 2 kts 294°
2026-04-28 09:55 -6.11777 106.65998 35 ft 2 kts 315°
2026-04-28 09:56 -6.11788 106.66007 35 ft 1 kts 335°
2026-04-28 09:56 -6.11793 106.66009 35 ft 1 kts 339°
2026-04-28 09:56 -6.11794 106.66009 35 ft 0 kts 339°
2026-04-28 09:58 -6.11793 106.66009 35 ft 0 kts 339°
2026-04-28 09:58 -6.11778 106.66003 35 ft 4 kts 339°
2026-04-28 09:58 -6.11728 106.65983 35 ft 11 kts 337°
2026-04-28 09:59 -6.11633 106.65944 34 ft 18 kts 338°
2026-04-28 09:59 -6.11524 106.65899 32 ft 9 kts 321°
2026-04-28 09:59 -6.11516 106.65834 33 ft 9 kts 251°
2026-04-28 09:59 -6.11541 106.65768 35 ft 10 kts 248°
2026-04-28 10:00 -6.11572 106.65691 37 ft 12 kts 248°
2026-04-28 10:00 -6.11611 106.65592 38 ft 18 kts 248°
2026-04-28 10:00 -6.11666 106.65453 38 ft 24 kts 248°
2026-04-28 10:00 -6.11739 106.65269 38 ft 31 kts 248°
2026-04-28 10:01 -6.11821 106.65060 39 ft 32 kts 248°
2026-04-28 10:01 -6.11906 106.64846 38 ft 33 kts 248°
2026-04-28 10:01 -6.11994 106.64623 36 ft 25 kts 248°
2026-04-28 10:01 -6.12060 106.64457 38 ft 25 kts 248°
2026-04-28 10:02 -6.12128 106.64292 39 ft 25 kts 246°
2026-04-28 10:02 -6.12195 106.64123 40 ft 26 kts 249°
2026-04-28 10:02 -6.12244 106.63999 42 ft 11 kts 248°
2026-04-28 10:02 -6.12267 106.63934 42 ft 4 kts 266°
2026-04-28 10:03 -6.12265 106.63927 42 ft 2 kts 293°
2026-04-28 10:04 -6.12242 106.63902 42 ft 0 kts 324°
2026-04-28 10:05 -6.12241 106.63902 42 ft 0 kts 324°
2026-04-28 10:05 -6.12225 106.63890 42 ft 6 kts 325°
2026-04-28 10:05 -6.12157 106.63892 42 ft 14 kts 30°
2026-04-28 10:05 -6.12073 106.63960 41 ft 16 kts 60°
2026-04-28 10:06 -6.12033 106.64057 40 ft 22 kts 68°
2026-04-28 10:06 -6.11886 106.64423 37 ft 88 kts 69°
2026-04-28 10:06 -6.11587 106.65177 35 ft 142 kts 68°
2026-04-28 10:06 -6.11169 106.66230 108 ft 176 kts 66°
2026-04-28 10:07 -6.10730 106.67413 571 ft 183 kts 69°
2026-04-28 10:07 -6.10301 106.68634 1021 ft 193 kts 69°
2026-04-28 10:07 -6.09703 106.69860 1463 ft 202 kts 52°
2026-04-28 10:07 -6.08708 106.70917 1933 ft 209 kts 44°
2026-04-28 10:08 -6.07621 106.71949 2169 ft 224 kts 43°
2026-04-28 10:08 -6.06452 106.73042 2463 ft 238 kts 43°
2026-04-28 10:08 -6.05205 106.74214 2764 ft 253 kts 43°
2026-04-28 10:08 -6.03885 106.75463 3175 ft 264 kts 44°
2026-04-28 10:09 -6.02539 106.76741 3785 ft 267 kts 44°
2026-04-28 10:09 -6.01195 106.78023 4439 ft 270 kts 44°
2026-04-28 10:09 -5.99800 106.79305 5121 ft 272 kts 39°
2026-04-28 10:09 -5.98280 106.80454 5819 ft 274 kts 37°
2026-04-28 10:10 -5.96728 106.81570 6492 ft 277 kts 37°
2026-04-28 10:10 -5.95156 106.82702 7170 ft 281 kts 37°
2026-04-28 10:10 -5.93548 106.83867 7865 ft 284 kts 38°
2026-04-28 10:10 -5.91947 106.85037 8553 ft 287 kts 38°
2026-04-28 10:11 -5.90342 106.86216 9242 ft 290 kts 38°
2026-04-28 10:11 -5.88687 106.87431 9912 ft 293 kts 38°
2026-04-28 10:11 -5.87050 106.88628 10484 ft 299 kts 38°
2026-04-28 10:11 -5.85310 106.89907 10803 ft 314 kts 38°
2026-04-28 10:12 -5.83519 106.91228 11096 ft 329 kts 38°
2026-04-28 10:12 -5.81607 106.92640 11383 ft 345 kts 38°
2026-04-28 10:12 -5.79643 106.94090 11654 ft 359 kts 38°
2026-04-28 10:12 -5.77574 106.95618 11919 ft 373 kts 38°
2026-04-28 10:13 -5.75445 106.97190 12173 ft 387 kts 38°
2026-04-28 10:13 -5.73240 106.98817 12503 ft 397 kts 38°
2026-04-28 10:13 -5.71016 107.00461 12991 ft 401 kts 38°
2026-04-28 10:13 -5.68736 107.02145 13545 ft 404 kts 37°
2026-04-28 10:14 -5.66470 107.03817 14065 ft 407 kts 38°
2026-04-28 10:14 -5.64180 107.05507 14575 ft 409 kts 37°
2026-04-28 10:14 -5.61902 107.07190 15063 ft 412 kts 37°